Regional Weather Roundup
Issued by NWS

Home | Current Version | Previous Version | Graphics & Text | Print | Product List | Glossary On
Versions: 1 2 3 4 5 6 7 8 9 10 11 12 13 14 15 16 17 18 19 20 21 22 23 24 25 26 27 28 29 30 31 32 33 34 35 36 37 38 39 40 41 42 43 44 45 46 47 48 49 50
729
ASUS43 KLSX 261310
RWRMO

WEATHER SUMMARY FOR MISSOURI
NATIONAL WEATHER SERVICE SPRINGFIELD MO
800 AM CDT FRI MAY 26 2017

NOTE: "FAIR" INDICATES FEW OR NO CLOUDS BELOW 12,000 FEET WITH NO
       SIGNIFICANT WEATHER AND/OR OBSTRUCTIONS TO VISIBILITY.
       CURRENT SKY AND/OR WEATHER CONDITIONS ARE NOT AVAILABLE FOR
       CHILLICOTHE AND FARMINGTON.

MOZ001>031-035>038-043-044-053-054-261400-
...NORTHERN AND WESTERN MISSOURI...

CITY           SKY/WX    TMP DP  RH WIND       PRES   REMARKS
KANSAS CTY INT MOSUNNY   69  61  75 NW3       29.71R
KANSAS C DTWN  SUNNY     69  62  78 CALM      29.70R
LEE`S SUMMIT   SUNNY     68  63  84 N6        29.72R
ST JOSEPH      SUNNY     66  60  81 CALM      29.70R
CHILLICOTHE      N/A     66  62  87 SE5       29.70S
KIRKSVILLE     PTSUNNY   63  59  87 SW7       29.72R

$$
MOZ066>068-077>081-088>096-101>105-261400-
...SOUTHWEST MISSOURI...

CITY           SKY/WX    TMP DP  RH WIND       PRES   REMARKS
SPRINGFIELD    MOSUNNY   68  61  78 SE21      29.73S
JOPLIN         PTSUNNY   69  62  78 SE10G21   29.70R
BRANSON        PTSUNNY   64  61  88 E9        29.77R

$$
MOZ032>034-039>042-045>050-055>058-069>072-261400-
...CENTRAL MISSOURI...

CITY           SKY/WX    TMP DP  RH WIND       PRES   REMARKS
COLUMBIA       MOSUNNY   65  60  84 S15       29.67F
JEFFERSON CITY SUNNY     70  60  70 SE10      29.67F
ROLLA          MOSUNNY   63  62  97 S15G23    29.75R
SEDALIA        SUNNY     69  64  84 S8        29.72R
WHITEMAN AFB   SUNNY     69  68  99 N6        29.71R
WARRENSBURG    MOSUNNY   68  61  77 N6        29.71R
OSAGE BEACH    CLOUDY    65  61  87 S9        29.70F

$$
MOZ051-052-059>065-261400-
...EAST CENTRAL MISSOURI...

CITY           SKY/WX    TMP DP  RH WIND       PRES   REMARKS
ST LOUIS INTL  CLOUDY    67  57  70 E9        29.78F
SPIRIT OF STL  CLOUDY    65  59  81 E5        29.74F
ST CHARLES     CLOUDY    63  58  83 E12       29.78F

$$
MOZ072>076-082>087-097>100-106>115-261400-
...SOUTH CENTRAL AND SOUTHEAST MISSOURI...

CITY           SKY/WX    TMP DP  RH WIND       PRES   REMARKS
CAPE GIRARDEAU MOSUNNY   68  58  70 SW8       29.87R
FARMINGTON     CLOUDY    62  58  86 S7        29.85S
POPLAR BLUFF   MOSUNNY   68  61  78 SW6       29.87R
WEST PLAINS    CLOUDY    65  61  87 SE8       29.83R

$$




USA.gov is the U.S. government's official web portal to all federal, state and local government web resources and services.